KC3AWA Weather Reports


Display with metric or nautical units.
time (UTC)temp
F
wind
direction
speed
MPH
gust
MPH
rain 1hr
in
rain 24hr
in
rain mn
in
humidity
%
barometer
mb
20260509211253 67 325 5.0 9.0 0.00 0.39 0.39 55 1006.4
20260509210750 67 254 7.0 8.0 0.00 0.39 0.39 54 1006.4
20260509210248 67 243 4.0 6.0 0.00 0.39 0.39 54 1006.7
20260509205747 66 224 5.0 7.0 0.00 0.39 0.39 55 1006.6
20260509205242 65 221 3.0 4.0 0.00 0.39 0.39 56 1006.8
20260509204738 65 200 4.0 6.0 0.00 0.39 0.39 55 1006.5
20260509204235 65 115 7.0 9.0 0.00 0.39 0.39 58 1007.0
20260509203730 65 200 5.0 7.0 0.00 0.39 0.39 56 1007.1
20260509203229 66 208 10.0 14.0 0.00 0.39 0.39 53 1007.2
20260509202724 66 291 2.0 3.0 0.00 0.39 0.39 59 1007.1
20260509202220 66 358 3.0 6.0 0.00 0.39 0.39 58 1007.0
20260509201715 67 219 8.0 9.0 0.00 0.39 0.39 57 1007.3
20260509201212 66 90 3.0 4.0 0.00 0.39 0.39 57 1007.2
20260509200708 66 207 2.0 3.0 0.00 0.39 0.39 59 1007.3
20260509200203 66 230 2.0 3.0 0.00 0.39 0.39 57 1007.3
20260509195659 67 162 10.0 11.0 0.00 0.39 0.39 55 1007.6
20260509195155 66 210 2.0 2.0 0.00 0.39 0.39 57 1007.7
20260509194655 63 209 5.0 8.0 0.00 0.39 0.39 62 1007.7
20260509194152 63 246 7.0 8.0 0.00 0.39 0.39 64 1007.7
20260509193648 64 215 4.0 6.0 0.00 0.39 0.39 63 1007.7
20260509193143 66 241 5.0 6.0 0.00 0.39 0.39 60 1007.7
20260509192640 66 160 3.0 4.0 0.00 0.39 0.39 63 1007.6
20260509192136 65 216 8.0 10.0 0.00 0.39 0.39 63 1007.5
20260509191635 64 195 1.0 2.0 0.00 0.39 0.39 65 1007.8
20260509191132 64 201 3.0 4.0 0.00 0.39 0.39 68 1007.9
20260509190629 64 316 3.0 6.0 0.00 0.39 0.39 64 1008.1
20260509190126 64 222 6.0 8.0 0.00 0.39 0.39 66 1008.1
20260509185624 63 108 6.0 8.0 0.00 0.39 0.39 68 1008.2
20260509185119 62 234 3.0 4.0 0.00 0.39 0.39 71 1008.2
20260509184618 62 196 3.0 6.0 0.00 0.39 0.39 69 1008.2
20260509184114 62 204 5.0 7.0 0.00 0.39 0.39 68 1008.1
20260509183610 63 262 3.0 3.0 0.00 0.39 0.39 67 1008.1
20260509183106 63 181 8.0 10.0 0.00 0.39 0.39 67 1008.2
20260509182602 61 225 2.0 3.0 0.00 0.39 0.39 72 1008.1
20260509182059 59 163 6.0 7.0 0.00 0.39 0.39 76 1008.1
20260509181558 60 229 5.0 7.0 0.00 0.39 0.39 75 1008.2
20260509181054 60 136 6.0 10.0 0.00 0.39 0.39 74 1008.2
20260509180550 60 235 2.0 3.0 0.00 0.39 0.39 75 1008.4
20260509180048 61 242 3.0 4.0 0.00 0.39 0.39 74 1008.4
20260509175543 60 144 3.0 3.0 0.00 0.39 0.39 80 1008.3
20260509175040 60 174 4.0 4.0 0.00 0.39 0.39 82 1008.4
20260509174536 60 159 4.0 4.0 0.07 0.39 0.39 77 1008.6
20260509174032 62 253 9.0 13.0 0.07 0.39 0.39 71 1008.5
20260509173526 59 163 2.0 3.0 0.00 0.38 0.38 86 1008.3
20260509173023 59 24 2.0 2.0 0.00 0.38 0.38 85 1009.0
20260509172520 57 321 1.0 1.0 0.00 0.38 0.38 87 1008.6
20260509172016 56 239 1.0 1.0 0.00 0.38 0.38 88 1008.6
20260509171512 56 119 3.0 6.0 0.00 0.38 0.38 89 1008.8
20260509171009 56 246 2.0 4.0 0.00 0.38 0.38 89 1008.9
20260509170504 56 223 2.0 3.0 0.00 0.38 0.38 89 1008.8
20260509170000 56 195 1.0 2.0 0.00 0.38 0.38 92 1008.8
20260509165459 55 22 0.0 0.0 0.00 0.38 0.38 95 1008.8
20260509164955 56 225 1.0 2.0 0.00 0.38 0.38 95 1008.8
20260509164451 55 224 2.0 2.0 0.00 0.38 0.38 96 1009.0
20260509163947 54 204 3.0 4.0 0.00 0.38 0.38 99 1009.0
20260509163445 53 264 1.0 1.0 0.00 0.38 0.38 98 1009.0
20260509162943 53 196 1.0 1.0 0.00 0.38 0.38 98 1009.0
20260509162443 53 310 2.0 3.0 0.00 0.38 0.38 98 1009.0
20260509161938 53 237 2.0 3.0 0.00 0.38 0.38 98 1008.9
20260509161435 52 225 1.0 1.0 0.00 0.38 0.38 98 1009.0
20260509160930 52 252 1.0 1.0 0.00 0.38 0.38 99 1008.6
20260509160426 52 300 2.0 3.0 0.00 0.38 0.38 99 1008.6
20260509155921 51 290 2.0 3.0 0.00 0.38 0.38 99 1008.4
20260509155418 51 272 1.0 2.0 0.00 0.38 0.38 98 1008.8
20260509154914 51 229 1.0 2.0 0.00 0.38 0.38 99 1009.0
20260509154411 51 203 3.0 3.0 0.00 0.38 0.38 99 1008.8
20260509153908 52 193 6.0 6.0 0.00 0.38 0.38 98 1009.0
20260509153405 51 155 2.0 3.0 0.00 0.38 0.38 99 1008.9
20260509152902 51 158 0.0 1.0 0.00 0.38 0.38 99 1008.6
20260509152358 51 195 2.0 2.0 0.00 0.38 0.38 99 1008.8
20260509151855 51 184 2.0 2.0 0.00 0.38 0.38 99 1008.6
20260509151351 51 253 1.0 1.0 0.00 0.38 0.38 99 1008.6
20260509150849 51 213 1.0 2.0 0.00 0.38 0.38 99 1008.6
20260509150347 51 204 2.0 2.0 0.00 0.38 0.38 98 1008.8
20260509145844 51 277 0.0 1.0 0.00 0.38 0.38 99 1008.8
20260509145344 51 20 0.0 0.0 0.00 0.38 0.38 99 1008.8
20260509144841 50 256 1.0 1.0 0.00 0.38 0.38 99 1008.8
20260509144338 50 149 2.0 2.0 0.00 0.38 0.38 99 1008.8
20260509143835 50 202 2.0 2.0 0.00 0.38 0.38 99 1008.8
20260509143333 50 119 1.0 2.0 0.00 0.38 0.38 99 1008.9
20260509142829 50 219 1.0 2.0 0.00 0.38 0.38 99 1008.6
20260509142325 50 250 0.0 1.0 0.00 0.38 0.38 99 1008.6
20260509141820 50 248 1.0 1.0 0.00 0.38 0.38 99 1008.6
20260509141318 50 262 0.0 1.0 0.00 0.38 0.38 99 1008.9
20260509140814 50 158 1.0 1.0 0.00 0.38 0.38 99 1008.9
20260509140311 50 125 1.0 1.0 0.00 0.38 0.38 99 1008.8
20260509135809 50 133 2.0 2.0 0.00 0.38 0.38 99 1008.6
20260509135306 49 224 2.0 2.0 0.00 0.38 0.38 99 1008.6
20260509134804 49 217 2.0 2.0 0.00 0.38 0.38 99 1008.8
20260509134301 49 278 1.0 2.0 0.00 0.38 0.38 99 1009.1
20260509133758 49 125 1.0 1.0 0.00 0.38 0.38 99 1008.9
20260509133254 49 244 0.0 1.0 0.00 0.38 0.38 99 1009.0
20260509132753 49 351 1.0 1.0 0.00 0.38 0.38 99 1009.1
20260509132252 49 276 0.0 0.0 0.00 0.38 0.38 99 1008.9
20260509131748 49 269 1.0 1.0 0.00 0.38 0.38 99 1009.0
20260509131244 49 245 0.0 1.0 0.00 0.38 0.38 99 1009.0
20260509130741 49 206 0.0 1.0 0.00 0.38 0.38 99 1009.0
20260509130236 49 99 1.0 1.0 0.00 0.38 0.38 99 1008.8
20260509125733 48 252 1.0 1.0 0.00 0.38 0.38 99 1009.0
20260509125230 48 119 1.0 2.0 0.00 0.38 0.38 99 1008.9
20260509124726 48 255 1.0 1.0 0.00 0.38 0.38 99 1009.0
20260509124223 48 187 2.0 2.0 0.00 0.38 0.38 99 1009.0
20260509123722 48 263 2.0 2.0 0.00 0.38 0.38 99 1009.2
20260509123219 48 114 1.0 2.0 0.00 0.38 0.38 99 1009.3
20260509122714 48 241 2.0 3.0 0.00 0.38 0.38 99 1009.2
20260509122211 48 186 1.0 1.0 0.00 0.38 0.38 99 1009.2
20260509121708 48 234 1.0 2.0 0.00 0.38 0.38 99 1009.3
20260509121205 48 228 1.0 2.0 0.00 0.38 0.38 99 1009.2
20260509120703 48 213 1.0 1.0 0.00 0.38 0.38 99 1009.2
20260509120201 48 265 0.0 1.0 0.00 0.38 0.38 99 1009.3
20260509115658 48 94 1.0 1.0 0.00 0.38 0.38 99 1009.3
20260509115155 48 274 0.0 1.0 0.05 0.38 0.38 99 1009.3
20260509114654 48 25 0.0 1.0 0.05 0.38 0.38 99 1009.1
20260509114153 48 159 1.0 2.0 0.05 0.38 0.38 99 1009.1
20260509113650 48 276 0.0 0.0 0.00 0.37 0.37 99 1009.3
20260509113147 48 253 0.0 1.0 0.00 0.37 0.37 99 1009.0
20260509112644 48 333 0.0 0.0 0.00 0.37 0.37 99 1009.1
20260509112141 48 292 1.0 1.0 0.00 0.37 0.37 99 1009.2
20260509111638 47 120 1.0 2.0 0.00 0.37 0.37 99 1009.2
20260509111135 47 216 2.0 2.0 0.00 0.37 0.37 99 1009.3
20260509110632 47 261 4.0 4.0 0.00 0.37 0.37 99 1009.0
20260509110129 47 157 2.0 2.0 0.00 0.37 0.37 99 1009.0
20260509105627 47 288 0.0 0.0 0.00 0.37 0.37 99 1009.0
20260509105124 47 175 1.0 2.0 0.00 0.37 0.37 98 1008.8
20260509104621 47 139 1.0 1.0 0.00 0.37 0.37 98 1009.1
20260509104118 47 198 2.0 3.0 0.00 0.37 0.37 98 1009.1
20260509103616 47 238 1.0 1.0 0.00 0.37 0.37 98 1009.1
20260509103114 47 230 1.0 1.0 0.00 0.37 0.37 99 1009.1
20260509102611 47 151 3.0 4.0 0.00 0.37 0.37 99 1009.2
20260509102108 47 223 2.0 4.0 0.07 0.37 0.37 98 1009.3
20260509101604 47 211 1.0 2.0 0.07 0.37 0.37 98 1009.3
20260509101101 47 39 0.0 1.0 0.05 0.36 0.36 98 1009.2
20260509100558 47 117 1.0 1.0 0.12 0.36 0.36 98 1009.1
20260509100055 47 326 0.0 1.0 0.07 0.35 0.35 98 1009.1
20260509095551 47 230 2.0 2.0 0.07 0.35 0.35 98 1009.3
20260509095049 47 212 3.0 3.0 0.07 0.34 0.34 98 1009.4
20260509094545 47 196 1.0 2.0 0.00 0.33 0.33 98 1009.3
20260509094043 47 280 0.0 0.0 0.05 0.33 0.33 98 1009.3
20260509093541 47 356 1.0 2.0 0.12 0.33 0.33 98 1009.2
20260509093038 47 142 0.0 1.0 0.12 0.32 0.32 98 1009.3
20260509092536 47 66 2.0 2.0 0.05 0.31 0.31 98 1009.5
20260509092035 47 184 1.0 1.0 0.12 0.31 0.31 98 1009.5
20260509091531 47 197 1.0 2.0 0.12 0.30 0.30 98 1009.7
20260509091028 47 263 1.0 2.0 0.05 0.29 0.29 98 1009.5
20260509090525 47 286 1.0 1.0 0.07 0.28 0.28 98 1009.7
20260509090023 47 217 2.0 2.0 0.07 0.28 0.28 98 1009.6
20260509085520 47 188 1.0 2.0 0.00 0.27 0.27 98 1009.5
20260509085016 47 198 1.0 1.0 0.05 0.27 0.27 98 1009.7
20260509084513 47 185 1.0 1.0 0.05 0.27 0.27 98 1009.6
20260509084010 47 203 2.0 3.0 0.12 0.26 0.26 98 1009.8
20260509083508 47 297 1.0 1.0 0.12 0.26 0.26 98 1009.6
20260509083004 47 178 1.0 1.0 0.12 0.25 0.25 98 1009.7
20260509082501 47 252 2.0 2.0 0.12 0.24 0.24 98 1009.7
20260509081958 47 212 1.0 1.0 0.12 0.23 0.23 98 1009.6
20260509081455 47 277 1.0 1.0 0.14 0.22 0.22 98 1009.7
20260509080952 47 127 3.0 4.0 0.12 0.21 0.21 98 1009.7
20260509080451 47 125 1.0 1.0 0.12 0.20 0.20 98 1009.5
20260509075948 47 334 1.0 1.0 0.07 0.19 0.19 98 1009.5
20260509075445 47 290 0.0 1.0 0.07 0.19 0.19 98 1009.5
20260509074943 47 140 1.0 2.0 0.05 0.18 0.18 98 1009.6
20260509074440 47 321 0.0 0.0 0.05 0.18 0.18 98 1009.7
20260509073936 47 150 1.0 2.0 0.00 0.17 0.17 98 1009.7
20260509073433 47 116 0.0 1.0 0.07 0.17 0.17 98 1009.6
20260509072929 47 150 1.0 1.0 0.07 0.17 0.17 98 1009.8
20260509072426 47 251 0.0 0.0 0.05 0.16 0.16 98 1009.9
20260509071923 47 190 1.0 1.0 0.12 0.16 0.16 98 1009.9
20260509071420 47 148 1.0 2.0 0.07 0.15 0.15 98 1009.8
20260509070918 47 277 0.0 0.0 0.00 0.14 0.14 98 1009.6
20260509070414 47 20 0.0 1.0 0.05 0.14 0.14 98 1009.9
20260509065909 47 168 1.0 2.0 0.05 0.14 0.14 98 1009.9
20260509065406 47 110 1.0 1.0 0.05 0.14 0.14 98 1009.8
20260509064902 47 91 1.0 1.0 0.07 0.13 0.13 98 1010.0
20260509064400 47 227 1.0 1.0 0.07 0.13 0.13 98 1010.1
20260509063857 47 185 0.0 0.0 0.00 0.12 0.12 98 1010.2
20260509063353 47 282 0.0 0.0 0.05 0.12 0.12 98 1010.1
20260509062850 47 294 0.0 0.0 0.12 0.12 0.12 98 1010.1
20260509062347 47 322 0.0 0.0 0.07 0.11 0.11 98 1010.3
20260509061844 47 354 0.0 0.0 0.00 0.10 0.10 98 1010.5
20260509061343 47 52 1.0 1.0 0.00 0.10 0.10 98 1010.6
20260509060839 47 337 0.0 0.0 0.00 0.10 0.10 98 1010.8
20260509060337 47 280 0.0 0.0 0.07 0.10 0.10 98 1010.8
20260509055831 47 165 1.0 2.0 0.07 0.10 0.10 98 1010.8
20260509055327 47 280 0.0 0.0 0.00 0.09 0.09 98 1010.9
20260509054825 47 254 1.0 1.0 0.00 0.09 0.09 98 1011.0
20260509054321 47 187 1.0 1.0 0.00 0.09 0.09 98 1010.9
20260509053820 47 288 0.0 0.0 0.00 0.09 0.09 98 1010.8
20260509053316 47 248 0.0 0.0 0.00 0.09 0.09 98 1010.8
20260509052814 47 257 0.0 1.0 0.05 0.09 0.09 98 1011.2
20260509052312 47 197 1.0 1.0 0.05 0.09 0.09 98 1011.3
20260509051809 47 291 0.0 1.0 0.07 0.08 0.08 98 1011.2
20260509051308 47 284 0.0 0.0 0.19 0.08 0.08 98 1011.2
20260509050803 47 80 2.0 2.0 0.12 0.07 0.07 98 1011.3
20260509050300 47 184 1.0 1.0 0.12 0.06 0.06 98 1011.5
20260509045757 47 11 0.0 0.0 0.12 0.05 0.05 98 1011.7
20260509045254 47 298 0.0 0.0 0.12 0.04 0.04 98 1011.7
20260509044752 47 89 1.0 1.0 0.12 0.03 0.03 98 1011.7
20260509044249 47 267 0.0 0.0 0.07 0.02 0.02 98 1011.6
20260509043745 47 204 1.0 2.0 0.05 0.01 0.01 97 1011.9
20260509043241 47 267 2.0 2.0 0.05 0.01 0.01 97 1011.7
20260509042738 47 242 1.0 1.0 0.00 0.00 0.00 97 1011.6
20260509042234 47 349 1.0 1.0 0.00 0.00 0.00 97 1011.8
20260509041731 47 273 2.0 2.0 0.00 0.00 0.00 97 1011.9
20260509041228 47 224 1.0 1.0 0.00 0.00 0.00 97 1011.9
20260509040726 47 167 1.0 2.0 0.00 0.00 0.00 97 1011.9
20260509040223 47 243 2.0 2.0 0.07 0.00 0.00 97 1012.0
20260509035719 47 223 1.0 2.0 0.07 0.47 0.47 97 1012.1
20260509035216 47 267 0.0 1.0 0.00 0.46 0.46 97 1012.3
20260509034714 47 157 1.0 2.0 0.05 0.46 0.46 97 1012.1
20260509034211 47 300 1.0 2.0 0.05 0.46 0.46 97 1012.0
20260509033708 47 229 2.0 3.0 0.07 0.45 0.45 97 1011.9
20260509033205 47 257 1.0 1.0 0.14 0.45 0.45 97 1012.1
20260509032702 47 124 1.0 2.0 0.07 0.44 0.44 97 1012.2
20260509032159 47 226 1.0 1.0 0.05 0.43 0.43 97 1012.2
20260509031656 47 229 1.0 1.0 0.05 0.43 0.43 97 1012.1
20260509031153 47 250 0.0 1.0 0.12 0.43 0.43 97 1012.3
20260509030652 47 310 0.0 0.0 0.12 0.42 0.42 97 1012.4
20260509030149 47 162 1.0 2.0 0.12 0.41 0.41 97 1012.4
20260509025645 47 108 1.0 1.0 0.07 0.40 0.40 97 1012.5
20260509025141 47 251 0.0 1.0 0.05 0.39 0.39 97 1012.5
20260509024636 47 150 1.0 2.0 0.12 0.39 0.39 97 1012.4
20260509024132 47 248 0.0 1.0 0.07 0.38 0.38 97 1012.5
20260509023631 47 157 0.0 2.0 0.05 0.37 0.37 97 1012.6
20260509023127 47 296 1.0 1.0 0.12 0.37 0.37 97 1012.7
20260509022623 47 298 1.0 2.0 0.07 0.36 0.36 96 1012.6
20260509022122 47 216 1.0 1.0 0.05 0.35 0.35 96 1012.6
20260509021618 47 233 0.0 1.0 0.12 0.35 0.35 96 1012.7
20260509021115 47 338 0.0 0.0 0.12 0.34 0.34 96 1012.8
20260509020614 47 288 0.0 1.0 0.05 0.33 0.33 96 1012.8
20260509020110 47 247 1.0 2.0 0.12 0.33 0.33 96 1012.7
20260509015609 47 328 0.0 0.0 0.07 0.32 0.32 96 1012.8
20260509015106 47 267 0.0 0.0 0.07 0.31 0.31 96 1012.4
20260509014602 47 281 0.0 0.0 0.07 0.31 0.31 96 1012.4
20260509014059 47 287 0.0 0.0 0.05 0.30 0.30 96 1012.4
20260509013556 47 289 0.0 0.0 0.12 0.30 0.30 96 1012.4
20260509013051 47 297 0.0 0.0 0.19 0.29 0.29 96 1012.4
20260509012548 47 347 0.0 0.0 0.12 0.28 0.28 95 1012.3
20260509012045 47 294 0.0 0.0 0.12 0.26 0.26 95 1012.1
20260509011543 47 294 0.0 0.0 0.07 0.25 0.25 95 1012.2
20260509011040 47 328 0.0 0.0 0.12 0.25 0.25 95 1011.9
20260509010538 47 6 0.0 0.0 0.12 0.24 0.24 95 1011.9
20260509010034 47 270 0.0 0.0 0.07 0.23 0.23 95 1012.0
20260509005532 47 271 0.0 0.0 0.12 0.23 0.23 94 1012.0
20260509005033 47 293 0.0 0.0 0.12 0.22 0.22 94 1011.7
20260509004530 47 268 0.0 0.0 0.07 0.21 0.21 94 1011.8
20260509004026 47 268 1.0 1.0 0.12 0.21 0.21 94 1011.7
20260509003525 47 241 0.0 0.0 0.12 0.20 0.20 94 1011.6
20260509003021 47 312 0.0 0.0 0.07 0.19 0.19 93 1011.6
20260509002519 47 339 0.0 1.0 0.14 0.19 0.19 93 1011.6
20260509002016 47 354 2.0 2.0 0.12 0.18 0.18 93 1011.6
20260509001514 47 328 0.0 0.0 0.17 0.17 0.17 92 1011.8
20260509001009 47 4 0.0 0.0 0.19 0.16 0.16 92 1011.9
20260509000508 47 219 1.0 1.0 0.12 0.14 0.14 91 1012.0
20260509000004 48 304 0.0 0.0 0.17 0.13 0.13 91 1012.0
20260508235502 48 245 0.0 0.0 0.24 0.12 0.12 90 1012.0
20260508234958 48 340 0.0 1.0 0.19 0.10 0.10 88 1011.9
20260508234455 49 140 1.0 2.0 0.19 0.09 0.09 86 1011.7
20260508233952 49 266 0.0 0.0 0.12 0.07 0.07 85 1011.6
20260508233452 49 71 2.0 2.0 0.05 0.06 0.06 83 1011.7
20260508232948 50 279 3.0 4.0 0.07 0.05 0.05 81 1011.5
20260508232445 51 229 1.0 2.0 0.00 0.04 0.04 77 1011.5
20260508231942 51 208 0.0 1.0 0.00 0.04 0.04 75 1011.5
20260508231439 51 186 2.0 2.0 0.00 0.04 0.04 74 1011.5
20260508230936 52 256 3.0 4.0 0.00 0.04 0.04 74 1011.5
20260508230433 52 279 0.0 1.0 0.00 0.04 0.04 74 1011.5
20260508225930 52 224 2.0 2.0 0.00 0.04 0.04 72 1011.3
20260508225427 52 134 2.0 2.0 0.00 0.04 0.04 72 1011.3
20260508224924 52 183 2.0 3.0 0.00 0.04 0.04 71 1011.4
20260508224422 52 111 3.0 6.0 0.00 0.04 0.04 74 1011.5
20260508223919 52 259 2.0 3.0 0.00 0.04 0.04 74 1011.4
20260508223417 52 205 1.0 1.0 0.00 0.04 0.04 74 1011.4
20260508222914 52 228 2.0 3.0 0.00 0.04 0.04 72 1011.4
20260508222411 52 221 2.0 2.0 0.00 0.04 0.04 75 1011.2
20260508221907 52 317 0.0 1.0 0.00 0.04 0.04 75 1011.3
20260508221403 52 218 7.0 8.0 0.00 0.04 0.04 73 1011.2
20260508220859 52 217 5.0 6.0 0.00 0.04 0.04 74 1011.2
20260508220356 52 197 0.0 1.0 0.00 0.04 0.04 77 1010.9
20260508215852 52 214 5.0 7.0 0.00 0.04 0.04 76 1011.2
20260508215349 52 250 2.0 3.0 0.00 0.04 0.04 75 1011.4
20260508214846 52 220 4.0 6.0 0.00 0.04 0.04 75 1011.2
20260508214344 52 229 2.0 3.0 0.00 0.04 0.04 77 1011.4
20260508213840 53 207 6.0 7.0 0.00 0.04 0.04 78 1011.3
20260508213337 53 130 8.0 10.0 0.00 0.04 0.04 80 1011.2
20260508212833 52 231 9.0 10.0 0.00 0.04 0.04 81 1011.3
20260508212330 52 231 2.0 3.0 0.00 0.04 0.04 82 1011.2
20260508211825 53 340 4.0 8.0 0.00 0.04 0.04 80 1011.2